When you browse on this site, cookies collect data to enhance your experience and personalize the content and advertising you see.
Visit our Privacy Policy to learn more. By continuing to use the site, you agree to this use of cookies and data.
  • In Lithuania
  • List of Countries
  • For 7 days
  • Water Temperature
  • Weather Map
  • Weather Widgets
  • user-avatar
    Login

    Hourly Weather Aba-el-Baul

    Today, 6 June, Saturday

    Time Temperature Precipitation Wind Pressure Humidity
    00:00 +36°C° 0 mm 6 mps 747 mmHg 32%
    01:00 +36°C° 0 mm 7 mps 747 mmHg 35%
    02:00 +35°C° 0 mm 7 mps 746 mmHg 37%
    03:00 +35°C° 0 mm 8 mps 746 mmHg 39%
    04:00 +35°C° 0 mm 8 mps 746 mmHg 40%
    05:00 +35°C° 0 mm 8 mps 747 mmHg 42%
    06:00 +35°C° 0 mm 8 mps 747 mmHg 43%
    07:00 +40°C° 0 mm 9 mps 748 mmHg 32%
    08:00 +44°C° 0 mm 10 mps 748 mmHg 22%
    09:00 +49°C° 0 mm 11 mps 748 mmHg 11%
    10:00 +51°C° 0 mm 11 mps 748 mmHg 10%
    11:00 +51°C° 0 mm 11 mps 748 mmHg 10%
    12:00 +52°C° 0 mm 12 mps 747 mmHg 9%
    13:00 +51°C° 0 mm 12 mps 747 mmHg 10%
    14:00 +51°C° 0 mm 12 mps 746 mmHg 11%
    15:00 +50°C° 0 mm 13 mps 746 mmHg 11%
    16:00 +48°C° 0 mm 11 mps 746 mmHg 12%
    17:00 +45°C° 0 mm 10 mps 746 mmHg 13%
    18:00 +44°C° 0 mm 9 mps 746 mmHg 14%
    19:00 +41°C° 0 mm 8 mps 746 mmHg 19%
    20:00 +40°C° 0 mm 7 mps 746 mmHg 23%
    21:00 +38°C° 0 mm 6 mps 746 mmHg 28%
    22:00 +38°C° 0 mm 6 mps 746 mmHg 29%
    23:00 +36°C° 0 mm 5 mps 746 mmHg 31%

    Tomorrow, 7 June, Sunday

    Time Temperature Precipitation Wind Pressure Humidity
    00:00 +36°C° 0 mm 5 mps 746 mmHg 33%
    01:00 +35°C° 0 mm 6 mps 746 mmHg 35%
    02:00 +35°C° 0 mm 7 mps 745 mmHg 37%
    03:00 +35°C° 0 mm 8 mps 745 mmHg 39%
    04:00 +35°C° 0 mm 8 mps 746 mmHg 38%
    05:00 +35°C° 0 mm 8 mps 746 mmHg 37%
    06:00 +37°C° 0 mm 8 mps 746 mmHg 37%
    07:00 +40°C° 0 mm 10 mps 747 mmHg 28%
    08:00 +44°C° 0 mm 12 mps 747 mmHg 19%
    09:00 +48°C° 0 mm 14 mps 747 mmHg 10%
    10:00 +50°C° 0 mm 14 mps 747 mmHg 9%
    11:00 +51°C° 0 mm 14 mps 747 mmHg 8%
    12:00 +52°C° 0 mm 14 mps 747 mmHg 7%
    13:00 +51°C° 0 mm 14 mps 746 mmHg 7%
    14:00 +51°C° 0 mm 14 mps 746 mmHg 8%
    15:00 +50°C° 0 mm 13 mps 745 mmHg 8%
    16:00 +48°C° 0 mm 12 mps 745 mmHg 9%
    17:00 +45°C° 0 mm 10 mps 745 mmHg 9%
    18:00 +44°C° 0 mm 8 mps 746 mmHg 10%
    19:00 +41°C° 0 mm 7 mps 746 mmHg 12%
    20:00 +39°C° 0 mm 6 mps 746 mmHg 15%
    21:00 +37°C° 0 mm 5 mps 746 mmHg 17%
    22:00 +36°C° 0 mm 4 mps 746 mmHg 19%
    23:00 +36°C° 0 mm 4 mps 746 mmHg 20%

    Day after tomorrow, 8 June, Monday

    Time Temperature Precipitation Wind Pressure Humidity
    00:00 +36°C° 0 mm 4 mps 745 mmHg 21%
    01:00 +35°C° 0 mm 4 mps 745 mmHg 24%
    02:00 +35°C° 0 mm 4 mps 745 mmHg 27%
    03:00 +34°C° 0 mm 4 mps 744 mmHg 31%
    04:00 +34°C° 0 mm 4 mps 745 mmHg 33%
    05:00 +34°C° 0 mm 4 mps 745 mmHg 35%
    06:00 +34°C° 0 mm 4 mps 746 mmHg 38%
    07:00 +39°C° 0 mm 5 mps 746 mmHg 30%
    08:00 +42°C° 0 mm 5 mps 746 mmHg 22%
    09:00 +46°C° 0 mm 6 mps 747 mmHg 14%
    10:00 +47°C° 0 mm 6 mps 747 mmHg 12%
    11:00 +50°C° 0 mm 7 mps 747 mmHg 10%
    12:00 +51°C° 0 mm 8 mps 746 mmHg 7%
    13:00 +51°C° 0 mm 8 mps 746 mmHg 7%
    14:00 +50°C° 0 mm 8 mps 746 mmHg 7%
    15:00 +50°C° 0 mm 8 mps 745 mmHg 7%
    16:00 +49°C° 0 mm 7 mps 745 mmHg 8%
    17:00 +46°C° 0 mm 6 mps 745 mmHg 9%
    18:00 +43°C° 0 mm 5 mps 745 mmHg 10%
    19:00 +41°C° 0 mm 4 mps 746 mmHg 12%
    20:00 +38°C° 0 mm 3 mps 746 mmHg 15%
    21:00 +36°C° 0 mm 2 mps 746 mmHg 17%
    22:00 +35°C° 0 mm 2 mps 746 mmHg 18%
    23:00 +33°C° 0 mm 1 mps 746 mmHg 18%

    9 June, Tuesday

    Time Temperature Precipitation Wind Pressure Humidity
    00:00 +32°C° 0 mm 1 mps 746 mmHg 19%
    01:00 +32°C° 0 mm 1 mps 745 mmHg 18%
    02:00 +32°C° 0 mm 1 mps 745 mmHg 18%
    03:00 +32°C° 0 mm 2 mps 745 mmHg 17%
    04:00 +34°C° 0 mm 2 mps 746 mmHg 17%
    05:00 +35°C° 0 mm 2 mps 746 mmHg 16%
    06:00 +36°C° 0 mm 2 mps 747 mmHg 16%
    07:00 +38°C° 0 mm 3 mps 747 mmHg 14%
    08:00 +42°C° 0 mm 3 mps 747 mmHg 12%
    09:00 +45°C° 0 mm 4 mps 748 mmHg 10%
    10:00 +47°C° 0 mm 4 mps 748 mmHg 9%
    11:00 +48°C° 0 mm 5 mps 747 mmHg 8%
    12:00 +51°C° 0 mm 6 mps 747 mmHg 7%
    13:00 +51°C° 0 mm 6 mps 747 mmHg 8%
    14:00 +50°C° 0 mm 7 mps 747 mmHg 8%
    15:00 +50°C° 0 mm 7 mps 746 mmHg 9%
    16:00 +47°C° 0 mm 6 mps 746 mmHg 11%
    17:00 +45°C° 0 mm 6 mps 746 mmHg 13%
    18:00 +42°C° 0 mm 5 mps 746 mmHg 15%
    19:00 +40°C° 0 mm 4 mps 746 mmHg 21%
    20:00 +37°C° 0 mm 4 mps 747 mmHg 27%
    21:00 +35°C° 0 mm 3 mps 747 mmHg 33%
    22:00 +34°C° 0 mm 3 mps 747 mmHg 34%
    23:00 +32°C° 0 mm 2 mps 746 mmHg 35%

    10 June, Wednesday

    Time Temperature Precipitation Wind Pressure Humidity
    00:00 +31°C° 0 mm 2 mps 746 mmHg 36%
    01:00 +31°C° 0 mm 2 mps 746 mmHg 35%
    02:00 +31°C° 0 mm 2 mps 745 mmHg 33%
    03:00 +30°C° 0 mm 1 mps 745 mmHg 31%
    04:00 +31°C° 0 mm 2 mps 745 mmHg 29%
    05:00 +32°C° 0 mm 2 mps 746 mmHg 26%
    06:00 +34°C° 0 mm 2 mps 746 mmHg 24%
    07:00 +37°C° 0 mm 2 mps 747 mmHg 22%
    08:00 +39°C° 0 mm 2 mps 747 mmHg 19%
    09:00 +42°C° 0 mm 2 mps 747 mmHg 16%
    10:00 +44°C° 0 mm 3 mps 747 mmHg 14%
    11:00 +46°C° 0 mm 3 mps 747 mmHg 13%
    12:00 +49°C° 0 mm 4 mps 747 mmHg 11%
    13:00 +49°C° 0 mm 5 mps 746 mmHg 11%
    14:00 +49°C° 0 mm 5 mps 746 mmHg 11%
    15:00 +49°C° 0 mm 6 mps 746 mmHg 11%
    16:00 +47°C° 0 mm 5 mps 746 mmHg 14%
    17:00 +45°C° 0 mm 5 mps 746 mmHg 17%
    18:00 +41°C° 0 mm 4 mps 746 mmHg 20%
    19:00 +40°C° 0 mm 4 mps 746 mmHg 24%
    20:00 +37°C° 0 mm 3 mps 746 mmHg 27%
    21:00 +35°C° 0 mm 3 mps 747 mmHg 30%
    22:00 +34°C° 0 mm 2 mps 746 mmHg 28%
    23:00 +34°C° 0 mm 2 mps 746 mmHg 27%

    11 June, Thursday

    Time Temperature Precipitation Wind Pressure Humidity
    00:00 +32°C° 0 mm 1 mps 745 mmHg 25%
    01:00 +32°C° 0 mm 1 mps 745 mmHg 24%
    02:00 +31°C° 0 mm 1 mps 745 mmHg 22%
    03:00 +31°C° 0 mm 1 mps 744 mmHg 21%
    04:00 +32°C° 0 mm 1 mps 744 mmHg 20%
    05:00 +33°C° 0 mm 1 mps 745 mmHg 19%
    06:00 +35°C° 0 mm 1 mps 745 mmHg 17%
    07:00 +37°C° 0 mm 1 mps 745 mmHg 15%
    08:00 +41°C° 0 mm 1 mps 746 mmHg 14%
    09:00 +44°C° 0 mm 1 mps 746 mmHg 12%
    10:00 +45°C° 0 mm 1 mps 746 mmHg 10%
    11:00 +47°C° 0 mm 1 mps 746 mmHg 8%
    12:00 +49°C° 0 mm 2 mps 745 mmHg 7%
    13:00 +50°C° 0 mm 3 mps 745 mmHg 8%
    14:00 +50°C° 0 mm 4 mps 745 mmHg 8%
    15:00 +51°C° 0 mm 6 mps 744 mmHg 9%
    16:00 +47°C° 0 mm 5 mps 744 mmHg 12%
    17:00 +45°C° 0 mm 5 mps 744 mmHg 15%
    18:00 +41°C° 0 mm 4 mps 744 mmHg 18%
    19:00 +39°C° 0 mm 3 mps 745 mmHg 21%
    20:00 +37°C° 0 mm 3 mps 745 mmHg 24%
    21:00 +36°C° 0 mm 2 mps 745 mmHg 27%
    22:00 +35°C° 0 mm 2 mps 745 mmHg 26%
    23:00 +35°C° 0 mm 2 mps 744 mmHg 25%
    Show more